Flag for Australia Weather past 2 weeks in Mudgee, New South Wales, Australia

Now
44 °F

Quite cool.


Feels Like: 44 °F
Forecast: 27 / 53 °F
Wind: No wind

Location: Mudgee Aws

Current Time: Jul 3, 2015 at 6:39:32 PM

Latest Report: Jul 3, 2015 at 6:00 PM


Visibility: N/A

Pressure: 30.30 "Hg

Humidity: 69%

Dew point: 34 °F

Location of MudgeeLocation

Historic Weather in Mudgee — Graph

°F

Mudgee temperature yesterday

Maximum temperature yesterday: 51 °F (at 3:00 PM)
Minimum temperature yesterday: 29 °F (at 2:00 AM)
Average temperature yesterday: 41 °F

Past Weeks' High & Low Weather Summary

 TemperatureHumidityPressure
High62 °F (Jun 25, 2:00 PM)100% (Jun 20, 9:00 AM)30.55 "Hg (Jun 20, 9:00 AM)
Low29 °F (Jul 3, 5:00 AM)43% (Jun 20, 3:00 PM)30.00 "Hg (Jun 18, 5:00 PM)
Average45 °F87%30.33 "Hg
* Reported Jun 18 5:00 PM — Jul 3 5:00 PM, Mudgee, Weather by CustomWeather, © 2015

Note: Actual official high and low records may vary slightly from our data, if they occured in-between our weather recording intervals... More about our weather records

Advertising

Mudgee weather history for previous 24 hours

 ConditionsComfort  
Time TempWeatherWind HumidityBarometerVisibility
5:00 PM
Fri, Jul 3
49 °FCool.5 mph59%30.29 "HgN/A
3:00 PM53 °FCool.7 mph54%30.28 "HgN/A
2:00 PM52 °FCool.6 mph52%30.28 "HgN/A
12:00 PM48 °FCool.2 mph57%30.33 "HgN/A
11:00 AM44 °FQuite cool.6 mph64%30.35 "HgN/A
9:00 AM35 °FChilly.No wind96%30.36 "HgN/A
8:00 AM29 °FChilly.5 mph98%30.34 "HgN/A
6:00 AM29 °FChilly.5 mph98%30.29 "HgN/A
5:00 AM29 °FChilly.5 mph98%30.27 "HgN/A
3:00 AM29 °FChilly.6 mph95%30.28 "HgN/A
2:00 AM33 °FChilly.7 mph93%30.28 "HgN/A
12:00 AM38 °FChilly.5 mph82%30.29 "HgN/A
11:00 PM
Thu, Jul 2
40 °FQuite cool.7 mph76%30.29 "HgN/A
9:00 PM46 °FPassing clouds.13 mph65%30.27 "HgN/A
8:00 PM47 °FCool.12 mph62%30.26 "HgN/A
6:00 PM49 °FOvercast.9 mph70%30.21 "HgN/A
Weather by CustomWeather, © 2015

See weather overviewHow to use our weather pages